FW3019 Weather Reports


time (UTC)temp
C
wind
direction
speed
KPH
gust
KPH
rain 1hr
cm
rain 24hr
cm
rain mn
cm
humidity
%
barometer
mb
20260510022347 21 177 0.0 0.0 0.00 0.00 0.00 85 1013.0
20260510021844 21 177 0.0 0.0 0.00 0.00 0.00 85 1012.9
20260510021341 21 177 0.0 0.0 0.00 0.00 0.00 85 1012.9
20260510020840 21 177 0.0 0.0 0.00 0.00 0.00 84 1012.9
20260510020337 21 177 0.0 0.0 0.00 0.00 0.00 84 1012.9
20260510015836 21 176 0.0 0.0 0.00 0.00 0.00 84 1012.8
20260510015335 21 178 0.0 0.0 0.00 0.00 0.00 84 1012.8
20260510014837 21 178 0.0 0.0 0.00 0.00 0.00 84 1012.8
20260510014334 21 178 0.0 0.0 0.00 0.00 0.00 83 1012.8
20260510013833 22 177 0.0 0.0 0.00 0.00 0.00 83 1012.8
20260510013329 22 177 0.0 0.0 0.00 0.00 0.00 83 1012.7
20260510012829 22 177 0.0 0.0 0.00 0.00 0.00 83 1012.7
20260510012329 22 177 0.0 0.0 0.00 0.00 0.00 83 1012.6
20260510012117 22 177 0.0 0.0 0.00 0.00 0.00 83 1012.6
20260510011328 22 177 0.0 0.0 0.00 0.00 0.00 82 1012.4
20260510010827 22 177 0.0 0.0 0.00 0.00 0.00 82 1012.3
20260510010608 22 178 0.0 0.0 0.00 0.00 0.00 82 1012.3
20260510005825 22 178 0.0 0.0 0.00 0.00 0.00 82 1012.3
20260510005326 22 176 0.0 0.0 0.00 0.00 0.00 82 1012.2
20260510005112 22 176 0.0 0.0 0.00 0.00 0.00 82 1012.0
20260510004323 22 176 0.0 0.0 0.00 0.00 0.00 81 1011.8
20260510003816 22 179 0.0 0.0 0.00 0.00 0.00 81 1011.7
20260510003309 22 200 0.0 0.0 0.00 0.00 0.00 81 1012.1
20260510002804 22 200 0.0 0.0 0.00 0.00 0.00 81 1012.1
20260510002300 23 200 0.0 0.0 0.00 0.00 0.00 81 1012.0
20260510001752 23 200 0.0 0.0 0.00 0.00 0.00 80 1011.7
20260510001246 23 194 0.0 0.0 0.00 0.00 0.00 80 1011.8
20260510000740 23 197 0.0 0.0 0.00 0.00 0.00 80 1011.8
20260510000234 23 197 0.0 0.0 0.00 0.00 0.00 79 1011.7
20260509235728 23 197 0.0 1.6 0.00 0.00 0.00 79 1011.3
20260509235510 23 186 0.0 1.6 0.00 0.00 0.00 79 1011.5
20260509234716 23 214 0.0 0.0 0.00 0.00 0.00 78 1011.6
20260509234211 23 214 0.0 0.0 0.00 0.00 0.00 78 1011.6
20260509233703 23 214 0.0 0.0 0.00 0.00 0.00 78 1011.6
20260509233158 23 213 0.0 1.6 0.00 0.00 0.00 77 1011.6
20260509232652 23 213 0.0 1.6 0.00 0.00 0.00 77 1011.6
20260509232152 24 178 0.0 0.0 0.00 0.00 0.00 76 1011.6
20260509231652 24 178 0.0 0.0 0.00 0.00 0.00 76 1011.4
20260509231439 24 177 0.0 0.0 0.00 0.00 0.00 76 1011.2
20260509230650 24 178 0.0 0.0 0.00 0.00 0.00 75 1011.3
20260509230148 24 178 0.0 0.0 0.00 0.00 0.00 75 1011.2
20260509225646 24 178 0.0 0.0 0.00 0.00 0.00 75 1011.1
20260509225144 24 178 0.0 1.6 0.00 0.00 0.00 75 1011.2
20260509224929 25 177 0.0 1.6 0.00 0.00 0.00 75 1011.2
20260509224140 25 115 0.0 1.6 0.00 0.00 0.00 75 1011.2
20260509223639 25 115 0.0 1.6 0.00 0.00 0.00 75 1011.1
20260509223143 25 196 0.0 0.0 0.00 0.00 0.00 75 1011.1
20260509222640 25 196 0.0 0.0 0.00 0.00 0.00 75 1010.9
20260509222139 25 198 0.0 0.0 0.00 0.00 0.00 74 1010.9
20260509221925 25 198 0.0 0.0 0.00 0.00 0.00 74 1011.0
20260509221136 25 210 0.0 1.6 0.00 0.00 0.00 74 1011.1
20260509220635 25 210 0.0 1.6 0.00 0.00 0.00 74 1011.2
20260509220422 25 246 0.0 1.6 0.00 0.00 0.00 74 1011.1
20260509215635 25 156 0.0 3.2 0.00 0.00 0.00 74 1011.1
20260509215419 25 215 0.0 8.0 0.00 0.00 0.00 74 1011.1
20260509214635 25 221 0.0 8.0 0.00 0.00 0.00 74 1011.2
20260509214136 25 219 0.0 3.2 0.00 0.00 0.00 74 1011.2
20260509213635 25 232 0.0 1.6 0.00 0.00 0.00 74 1011.1
20260509213136 25 244 0.0 1.6 0.00 0.00 0.00 74 1011.2
20260509212920 25 192 0.0 0.0 0.00 0.00 0.00 74 1011.4
20260509212420 25 197 0.0 1.6 0.00 0.00 0.00 74 1011.4
20260509211631 25 197 0.0 1.6 0.00 0.00 0.00 74 1011.4
20260509211131 25 235 0.0 1.6 0.00 0.00 0.00 74 1011.2
20260509210631 25 196 0.0 3.2 0.00 0.00 0.00 74 1011.0
20260509210131 25 198 0.0 3.2 0.00 0.00 0.00 74 1010.9
20260509205631 25 211 0.0 4.8 0.00 0.00 0.00 74 1010.7
20260509205132 25 173 0.0 4.8 0.00 0.00 0.00 74 1010.7
20260509204632 25 137 0.0 1.6 0.00 0.00 0.00 75 1011.0
20260509204128 25 128 0.0 0.0 0.00 0.00 0.00 75 1011.0
20260509203917 25 127 0.0 0.0 0.00 0.00 0.00 74 1011.2
20260509203127 26 128 0.0 0.0 0.00 0.00 0.00 73 1011.2
20260509202630 26 167 0.0 0.0 0.00 0.00 0.00 72 1011.2
20260509202128 26 164 0.0 0.0 0.00 0.00 0.00 71 1011.3
20260509201627 26 165 0.0 0.0 0.00 0.00 0.00 71 1011.4
20260509201126 26 165 0.0 0.0 0.00 0.00 0.00 70 1011.3
20260509200628 26 165 0.0 0.0 0.00 0.00 0.00 70 1011.3
20260509200128 26 165 0.0 0.0 0.00 0.00 0.00 69 1011.4
20260509195916 26 165 0.0 0.0 0.00 0.00 0.00 69 1011.4
20260509195115 26 165 0.0 0.0 0.00 0.00 0.00 68 1011.3
20260509194855 26 165 0.0 0.0 0.00 0.00 0.00 68 1011.3
20260509194356 26 165 0.0 0.0 0.00 0.00 0.00 68 1011.3
20260509193557 26 171 0.0 0.0 0.00 0.00 0.00 68 1011.3
20260509193052 26 212 0.0 0.0 0.00 0.00 0.00 67 1011.4
20260509192849 26 212 0.0 0.0 0.00 0.00 0.00 67 1011.4
20260509192049 26 219 0.0 1.6 0.00 0.00 0.00 67 1011.5
20260509191549 26 219 0.0 3.2 0.00 0.00 0.00 67 1011.6
20260509191125 27 248 0.0 3.2 0.00 0.00 0.00 67 1011.7
20260509191115 27 170 0.0 3.2 0.00 0.00 0.00 67 1011.7
20260509190045 27 315 0.0 3.2 0.00 0.00 0.00 67 1011.7
20260509185543 27 236 0.0 1.6 0.00 0.00 0.00 67 1011.6
20260509185041 27 236 0.0 6.4 0.00 0.00 0.00 67 1011.7
20260509184539 27 214 0.0 6.4 0.00 0.00 0.00 67 1011.7
20260509184040 27 207 0.0 4.8 0.00 0.00 0.00 68 1011.7
20260509183829 27 169 0.0 1.6 0.00 0.00 0.00 68 1011.7
20260509183325 27 307 0.0 3.2 0.00 0.00 0.00 68 1011.7
20260509182535 27 221 0.0 6.4 0.00 0.00 0.00 68 1011.7
20260509182033 27 179 0.0 6.4 0.00 0.00 0.00 69 1011.5
20260509181531 27 203 0.0 4.8 0.00 0.00 0.00 70 1011.6
20260509181030 27 207 1.6 8.0 0.00 0.00 0.00 71 1011.7
20260509180532 27 218 0.0 8.0 0.00 0.00 0.00 72 1011.5
20260509180029 27 190 0.0 4.8 0.00 0.00 0.00 73 1011.5
20260509175526 26 188 0.0 4.8 0.00 0.00 0.00 74 1011.7
20260509175025 26 210 0.0 6.4 0.00 0.00 0.00 74 1011.6
20260509174526 26 205 0.0 6.4 0.00 0.00 0.00 75 1011.7
20260509174019 26 214 0.0 4.8 0.00 0.00 0.00 75 1012.0
20260509173513 25 200 0.0 3.2 0.00 0.00 0.00 75 1012.1
20260509173255 25 226 0.0 3.2 0.00 0.00 0.00 75 1012.0
20260509172501 25 226 0.0 3.2 0.00 0.00 0.00 76 1012.1
20260509171955 25 212 0.0 3.2 0.00 0.00 0.00 76 1012.1
20260509171449 25 219 0.0 4.8 0.00 0.00 0.00 76 1012.5
20260509170943 25 188 0.0 8.0 0.00 0.00 0.00 76 1012.6
20260509170437 25 200 0.0 8.0 0.00 0.00 0.00 76 1012.5
20260509165930 25 179 0.0 3.2 0.00 0.00 0.00 77 1012.6
20260509165425 25 204 0.0 4.8 0.00 0.00 0.00 77 1012.7
20260509165211 25 196 0.0 4.8 0.00 0.00 0.00 77 1012.7
20260509164414 25 188 0.0 6.4 0.00 0.00 0.00 77 1012.8
20260509163906 25 172 0.0 6.4 0.00 0.00 0.00 78 1012.8
20260509163401 25 186 0.0 8.0 0.00 0.00 0.00 78 1012.8
20260509162856 24 203 0.0 8.0 0.00 0.00 0.00 78 1012.9
20260509162350 24 173 0.0 1.6 0.00 0.00 0.00 79 1013.0
20260509161843 24 193 0.0 0.0 0.00 0.00 0.00 79 1013.2
20260509161337 24 193 0.0 4.8 0.00 0.00 0.00 80 1013.1
20260509160830 24 193 0.0 4.8 0.00 0.00 0.00 82 1012.9
20260509160325 24 194 0.0 3.2 0.00 0.00 0.00 83 1012.9
20260509155819 24 192 1.6 8.0 0.00 0.00 0.00 84 1012.8
20260509155312 24 179 1.6 8.0 0.00 0.00 0.00 85 1012.8
20260509154807 23 196 0.0 6.4 0.00 0.00 0.00 86 1012.8
20260509154302 23 203 1.6 8.0 0.00 0.00 0.00 87 1012.8
20260509153755 23 178 3.2 8.0 0.00 0.00 0.00 88 1012.8
20260509153249 23 195 3.2 9.7 0.00 0.00 0.00 88 1012.8
20260509152743 23 156 1.6 9.7 0.00 0.00 0.00 88 1012.9
20260509152237 23 160 1.6 6.4 0.00 0.00 0.00 88 1012.9
20260509151731 22 178 1.6 6.4 0.00 0.00 0.00 88 1013.0
20260509151225 22 170 0.0 3.2 0.00 0.00 0.00 89 1013.3
20260509150719 22 168 0.0 0.0 0.00 0.00 0.00 89 1013.4
20260509150213 22 168 0.0 1.6 0.00 0.00 0.00 89 1013.5
20260509145707 22 150 0.0 1.6 0.00 0.00 0.00 89 1013.6
20260509145201 22 166 0.0 0.0 0.00 0.00 0.00 89 1013.7
20260509144654 22 166 0.0 0.0 0.00 0.00 0.00 89 1013.6
20260509144221 22 166 0.0 1.6 0.00 0.00 0.00 89 1013.5
20260509144211 22 166 0.0 1.6 0.00 0.00 0.00 89 1013.7
20260509143137 22 153 0.0 3.2 0.00 0.00 0.00 89 1013.5
20260509142631 22 152 0.0 3.2 0.00 0.00 0.00 89 1013.5
20260509142124 22 158 0.0 3.2 0.00 0.00 0.00 89 1013.4
20260509141619 22 133 0.0 3.2 0.00 0.00 0.00 89 1013.2
20260509141113 21 151 1.6 3.2 0.00 0.00 0.00 89 1013.2
20260509140607 21 139 1.6 3.2 0.00 0.00 0.00 89 1013.1
20260509135555 21 145 1.6 4.8 0.00 0.00 0.00 89 1013.1
20260509135049 21 155 1.6 3.2 0.00 0.00 0.00 89 1013.1
20260509134543 21 156 0.0 3.2 0.00 0.00 0.00 88 1013.1
20260509134328 21 150 1.6 3.2 0.00 0.00 0.00 88 1013.2
20260509133531 21 150 0.0 3.2 0.00 0.00 0.00 88 1013.1
20260509133025 21 150 0.0 1.6 0.00 0.00 0.00 88 1013.1
20260509132519 21 152 1.6 3.2 0.00 0.00 0.00 87 1013.1
20260509132013 21 144 0.0 3.2 0.00 0.00 0.00 88 1013.1
20260509131507 21 143 0.0 1.6 0.00 0.00 0.00 88 1013.3
20260509131001 21 103 0.0 0.0 0.00 0.00 0.00 88 1013.3
20260509130455 21 102 0.0 0.0 0.00 0.00 0.00 88 1013.4
20260509130239 21 102 0.0 0.0 0.00 0.00 0.00 89 1013.4
20260509125443 21 102 0.0 0.0 0.00 0.00 0.00 90 1013.5
20260509125225 21 102 0.0 0.0 0.00 0.00 0.00 90 1013.5
20260509124431 21 102 0.0 0.0 0.00 0.00 0.00 91 1013.6
20260509124215 21 102 0.0 0.0 0.00 0.00 0.00 92 1013.6
20260509123419 21 102 0.0 0.0 0.00 0.00 0.00 92 1013.7
20260509122913 21 102 0.0 0.0 0.00 0.00 0.00 93 1013.6
20260509122653 21 102 0.0 0.0 0.00 0.00 0.00 94 1013.5
20260509121903 20 102 0.0 0.0 0.00 0.00 0.00 94 1013.6
20260509121644 20 102 0.0 0.0 0.00 0.00 0.00 95 1013.6
20260509120849 20 102 0.0 0.0 0.00 0.00 0.00 95 1013.5
20260509120343 20 102 0.0 0.0 0.00 0.00 0.00 95 1013.5
20260509115836 20 102 0.0 1.6 0.00 0.00 0.00 95 1013.5
20260509115331 19 102 0.0 1.6 0.00 0.00 0.00 95 1013.3
20260509114825 18 103 0.0 1.6 0.00 0.00 0.00 95 1013.3
20260509114319 18 103 0.0 0.0 0.00 0.00 0.00 95 1013.3
20260509113815 17 103 0.0 0.0 0.00 0.00 0.00 95 1013.1
20260509113601 17 103 0.0 0.0 0.00 0.00 0.00 95 1013.1
20260509113105 17 103 0.0 0.0 0.00 0.00 0.00 95 1013.1
20260509112317 17 103 0.0 0.0 0.00 0.00 0.00 95 1013.3
20260509111817 17 103 0.0 0.0 0.00 0.00 0.00 94 1013.0
20260509111317 17 103 0.0 0.0 0.00 0.00 0.00 94 1012.9
20260509110815 16 103 0.0 0.0 0.00 0.00 0.00 94 1012.8
20260509110317 16 103 0.0 0.0 0.00 0.00 0.00 94 1012.8
20260509105818 16 103 0.0 0.0 0.00 0.00 0.00 94 1012.8
20260509105319 16 103 0.0 0.0 0.00 0.00 0.00 94 1012.7
20260509104906 17 103 0.0 0.0 0.00 0.00 0.00 94 1012.5
20260509104851 16 103 0.0 0.0 0.00 0.00 0.00 94 1012.6
20260509104108 17 103 0.0 0.0 0.00 0.00 0.00 94 1012.4
20260509103315 17 103 0.0 0.0 0.00 0.00 0.00 94 1012.3
20260509102815 17 103 0.0 0.0 0.00 0.00 0.00 94 1012.3
20260509102312 17 103 0.0 0.0 0.00 0.00 0.00 93 1012.2
20260509101812 17 103 0.0 0.0 0.00 0.00 0.00 93 1012.2
20260509101312 17 103 0.0 0.0 0.00 0.00 0.00 93 1012.3
20260509100812 17 103 0.0 0.0 0.00 0.00 0.00 93 1012.4
20260509100311 17 103 0.0 0.0 0.00 0.00 0.00 93 1012.3
20260509095814 17 103 0.0 0.0 0.00 0.00 0.00 93 1012.2
20260509095309 17 103 0.0 0.0 0.00 0.00 0.00 93 1012.2
20260509094808 17 103 0.0 0.0 0.00 0.00 0.00 93 1012.3
20260509094309 17 103 0.0 0.0 0.00 0.00 0.00 93 1012.5
20260509093807 17 103 0.0 0.0 0.00 0.00 0.00 93 1012.5
20260509093307 17 103 0.0 0.0 0.00 0.00 0.00 93 1012.4
20260509093054 17 103 0.0 0.0 0.00 0.00 0.00 93 1012.4
20260509092307 17 103 0.0 0.0 0.00 0.00 0.00 93 1012.5
20260509091808 17 103 0.0 0.0 0.00 0.00 0.00 93 1012.4
20260509091309 17 104 0.0 0.0 0.00 0.00 0.00 93 1012.4
20260509090808 17 104 0.0 0.0 0.00 0.00 0.00 93 1012.7
20260509090309 17 104 0.0 0.0 0.00 0.00 0.00 93 1012.7
20260509085809 17 104 0.0 0.0 0.00 0.00 0.00 93 1012.9
20260509085309 17 104 0.0 1.6 0.00 0.00 0.00 93 1012.8
20260509085106 17 104 0.0 1.6 0.00 0.00 0.00 92 1012.7
20260509084307 17 145 0.0 1.6 0.00 0.00 0.00 92 1012.6
20260509083807 17 143 0.0 0.0 0.00 0.00 0.00 92 1012.7
20260509083309 17 143 0.0 1.6 0.00 0.00 0.00 92 1012.7
20260509082806 17 143 0.0 1.6 0.00 0.00 0.00 92 1012.5
20260509082300 17 147 0.0 0.0 0.00 0.00 0.00 92 1012.6
20260509082103 17 147 0.0 0.0 0.00 0.00 0.00 92 1012.9
20260509081248 17 147 0.0 0.0 0.00 0.00 0.00 92 1013.0
20260509080742 17 147 0.0 0.0 0.00 0.00 0.00 91 1013.1
20260509080237 17 147 0.0 0.0 0.00 0.00 0.00 91 1013.0
20260509075730 17 147 0.0 0.0 0.00 0.00 0.00 91 1012.9
20260509075224 17 147 0.0 0.0 0.00 0.00 0.00 91 1012.8
20260509074718 17 147 0.0 0.0 0.00 0.00 0.00 91 1012.9
20260509074212 17 148 0.0 0.0 0.00 0.00 0.00 91 1013.1
20260509073706 17 148 0.0 0.0 0.00 0.00 0.00 90 1013.1
20260509073159 17 146 0.0 0.0 0.00 0.00 0.00 90 1013.2
20260509072654 17 146 0.0 0.0 0.00 0.00 0.00 90 1013.2
20260509072148 17 146 0.0 0.0 0.00 0.00 0.00 90 1013.1
20260509071642 17 146 0.0 0.0 0.00 0.00 0.00 90 1012.9
20260509071135 17 146 0.0 0.0 0.00 0.00 0.00 90 1012.8
20260509070630 17 146 0.0 0.0 0.00 0.00 0.00 89 1012.8
20260509070123 17 146 0.0 0.0 0.00 0.00 0.00 89 1012.9
20260509065904 17 146 0.0 1.6 0.00 0.00 0.00 89 1013.0
20260509065110 17 146 0.0 1.6 0.00 0.00 0.00 89 1012.8
20260509064604 17 147 0.0 0.0 0.00 0.00 0.00 89 1013.2
20260509064058 17 147 0.0 0.0 0.00 0.00 0.00 88 1013.2
20260509063552 18 147 0.0 3.2 0.00 0.00 0.00 88 1013.3
20260509063046 18 147 1.6 6.4 0.00 0.00 0.00 88 1013.3
20260509062539 18 126 0.0 6.4 0.00 0.00 0.00 88 1012.9
20260509062034 18 353 0.0 3.2 0.00 0.00 0.00 88 1013.5
20260509061528 18 63 0.0 1.6 0.00 0.00 0.00 88 1014.3
20260509061022 18 64 0.0 1.6 0.00 0.00 0.00 88 1014.3
20260509060515 18 64 0.0 1.6 0.00 0.00 0.00 88 1013.6
20260509060302 18 64 0.0 0.0 0.00 0.00 0.00 88 1013.5
20260509055504 18 28 0.0 0.0 0.00 0.00 0.00 89 1013.8
20260509055154 18 150 4.8 9.7 0.00 0.00 0.00 89 1013.7
20260509055149 18 162 3.2 8.0 0.00 0.00 0.00 89 1013.7
20260509055121 18 28 0.0 1.6 0.00 0.00 0.00 89 1013.8
20260509055011 18 27 0.0 1.6 0.00 0.00 0.00 89 1013.8
20260509054901 19 116 0.0 4.8 0.00 0.00 0.00 89 1014.1
20260509054431 18 169 4.8 8.0 0.00 0.00 0.00 89 1013.8
20260509052703 18 150 4.8 9.7 0.00 0.00 0.00 89 1013.7
20260509051922 18 161 3.2 9.7 0.00 0.00 0.00 89 1013.7
20260509051416 18 139 1.6 4.8 0.00 0.00 0.00 89 1014.1
20260509050910 18 150 1.6 4.8 0.00 0.00 0.00 89 1014.4
20260509050404 17 153 0.0 3.2 0.00 0.00 0.00 88 1014.6
20260509045859 17 136 0.0 1.6 0.00 0.00 0.00 88 1014.7
20260509045352 17 134 0.0 0.0 0.00 0.00 0.00 88 1015.1
20260509044846 17 134 0.0 0.0 0.00 0.00 0.00 88 1015.2
20260509044341 17 134 0.0 0.0 0.00 0.00 0.00 88 1015.3
20260509043835 17 134 0.0 0.0 0.00 0.00 0.00 88 1015.2
20260509043328 17 134 0.0 0.0 0.00 0.00 0.00 88 1015.3
20260509042822 17 134 0.0 0.0 0.00 0.00 0.00 88 1015.1
20260509042316 17 134 0.0 0.0 0.00 0.00 0.00 88 1015.0
20260509041810 17 134 0.0 1.6 0.00 0.00 0.00 88 1015.1
20260509041305 17 134 0.0 1.6 0.00 0.00 0.00 88 1014.7
20260509041059 17 113 0.0 0.0 0.00 0.00 0.00 88 1014.9
20260509040253 17 113 0.0 0.0 0.00 0.00 0.00 87 1015.3
20260509035746 17 113 0.0 0.0 0.00 0.00 0.00 87 1015.4
20260509035240 17 113 0.0 0.0 0.00 0.00 0.00 87 1015.6
20260509034734 17 114 0.0 0.0 0.00 0.00 0.00 87 1015.7
20260509034228 17 114 0.0 0.0 0.00 0.00 0.00 86 1015.6
20260509033722 17 114 0.0 0.0 0.00 0.00 0.00 86 1015.6
20260509033215 17 113 0.0 0.0 0.00 0.00 0.00 86 1015.6
20260509032710 17 113 0.0 0.0 0.00 0.00 0.00 86 1015.7
20260509032204 17 113 0.0 0.0 0.00 0.00 0.00 85 1015.7
20260509031704 17 113 0.0 0.0 0.00 0.00 0.00 85 1015.7
20260509031447 17 113 0.0 0.0 0.00 0.00 0.00 85 1015.6
20260509030701 17 113 0.0 0.0 0.00 0.00 0.00 85 1015.7
20260509030202 17 113 0.0 0.0 0.00 0.00 0.00 85 1015.8
20260509025658 17 113 0.0 0.0 0.00 0.00 0.00 84 1015.9
20260509025444 17 113 0.0 0.0 0.00 0.00 0.00 84 1016.0
20260509024655 17 113 0.0 0.0 0.00 0.00 0.00 84 1016.1
20260509024153 17 113 0.0 0.0 0.00 0.00 0.00 84 1016.1
20260509023724 17 113 0.0 0.0 0.00 0.00 0.00 83 1015.8
20260509023715 17 113 0.0 0.0 0.00 0.00 0.00 84 1015.9
20260509022646 17 113 0.0 0.0 0.00 0.00 0.00 83 1015.6